Tracking 29781 objects as of 15-Oct-2024
HD Live streaming from Space Station
objects crossing your sky now

DELTA 1 DEB

Track DELTA 1 DEB now!
10-day predictions


NORAD ID: 21496
Int'l Code: 1975-052FR
Perigee: 1,075.4 km
Apogee: 1,602.4 km
Inclination: 99.8 °
Period: 112.3 minutes
Semi major axis: 7709 km
RCS: 0.0117 m2 (small)
Launch date: June 12, 1975
Source: United States (US)
Launch site: AIR FORCE WESTERN TEST RANGE (AFWTR)

Note: This is SATELLITE DEBRIS
Your satellite tracking list
Your tracking list is empty




NASA's NSSDC Master Catalog

Two Line Element Set (TLE):
1 21496U 75052FR  24287.80303758  .00000272  00000-0  10315-2 0  9991
2 21496  99.8472 224.7163 0341795 299.1197  85.3693 12.82422455564155
Source of the keplerian elements: AFSPC